QPF
0.00 0.00 0.00 0.00 0.00 0.00 0.00 0.00 0.00 0.00 0.00 0.00 0.00 0.00 0.00 0.00 0.00 0.00 0.00 0.00 0.00 0.00 0.00 0.00 0.00 0.00 0.00 0.00 0.00 0.00 0.00 0.00 0.00 0.00 0.00 0.00 0.00 0.00 0.00 0.00 0.00 0.00 0.03 0.02 0.03
0.00 0.00 0.00 0.00 0.00 0.00 0.00 0.00 0.00 0.00 0.00 0.00 0.00 0.00 0.00 0.00 0.00 0.00 0.00 0.00 0.00 0.00 0.00 0.00 0.00 0.00 0.00 0.00 0.00 0.00 0.00 0.00 0.00 0.00 0.00 0.00 0.00 0.00 0.00 0.00 0.00 0.00 0.01 0.00 0.00
0.00 0.00 0.00 0.00 0.00 0.00 0.00 0.00 0.00 0.00 0.00 0.00 0.00 0.00 0.00 0.00 0.00 0.00 0.00 0.00 0.00 0.00 0.00 0.00 0.00 0.00 0.00 0.00 0.00 0.00 0.00 0.00 0.00 0.00 0.00 0.00 0.00 0.00 0.00 0.00 0.00 0.00 0.00 0.00 0.00
0.00 0.00 0.00 0.00 0.00 0.00 0.00 0.00 0.00 0.00 0.00 0.00 0.00 0.00 0.00 0.00 0.00 0.00 0.00 0.00 0.00 0.00 0.00 0.00 0.00 0.00 0.00 0.00 0.00 0.00 0.00 0.00 0.00 0.00 0.00 0.00 0.00 0.00 0.00 0.00 0.00 0.00 0.00 0.01 0.00
0.00 0.00 0.00 0.00 0.00 0.00 0.00 0.00 0.00 0.00 0.00 0.00 0.00 0.00 0.00 0.00 0.00 0.00 0.00 0.00 0.00 0.00 0.00 0.00 0.00 0.00 0.00 0.00 0.00 0.00 0.00 0.00 0.00 0.00 0.00 0.00 0.00 0.00 0.00 0.00 0.00 0.00 0.00 0.00 0.00
0.00 0.00 0.00 0.00 0.00 0.00 0.00 0.00 0.00 0.00 0.00 0.00 0.00 0.00 0.00 0.00 0.00 0.00 0.00 0.00 0.00 0.00 0.00 0.00 0.00 0.00 0.00 0.00 0.00 0.00 0.00 0.00 0.00 0.00 0.00 0.00 0.00 0.00 0.00 0.00 0.00 0.00 0.00 0.00 0.00
0.00 0.00 0.00 0.00 0.00 0.00 0.00 0.00 0.00 0.00 0.00 0.00 0.00 0.00 0.00 0.00 0.00 0.00 0.00 0.00 0.00 0.00 0.00 0.00 0.00 0.00 0.00 0.00 0.00 0.00 0.00 0.00 0.00 0.00 0.00 0.00 0.00 0.00 0.00 0.00 0.00 0.00 0.00 0.00 0.00
0.00 0.00 0.00 0.00 0.00 0.00 0.00 0.00 0.00 0.00 0.00 0.00 0.00 0.00 0.00 0.00 0.00 0.00 0.00 0.00 0.00 0.00 0.00 0.00 0.00 0.00 0.00 0.00 0.00 0.00 0.00 0.00 0.00 0.00 0.00 0.00 0.00 0.00 0.00 0.00 0.00 0.00 0.00 0.00 0.00
0.00 0.00 0.00 0.00 0.00 0.00 0.00 0.00 0.00 0.00 0.00 0.00 0.00 0.00 0.00 0.00 0.00 0.00 0.00 0.00 0.00 0.00 0.00 0.00 0.00 0.00 0.00 0.00 0.00 0.00 0.00 0.00 0.00 0.00 0.00 0.00 0.00 0.00 0.00 0.00 0.00 0.00 0.00 0.00 0.00
0.00 0.00 0.00 0.00 0.00 0.00 0.00 0.00 0.00 0.00 0.00 0.00 0.00 0.00 0.00 0.00 0.00 0.00 0.00 0.00 0.00 0.00 0.00 0.00 0.00 0.00 0.00 0.00 0.00 0.00 0.00 0.00 0.00 0.00 0.00 0.00 0.00 0.00 0.00 0.00 0.00 0.00 0.00 0.00 0.00
0.00 0.00 0.00 0.00 0.00 0.00 0.00 0.00 0.00 0.00 0.00 0.00 0.00 0.00 0.00 0.00 0.00 0.00 0.00 0.00 0.00 0.00 0.00 0.00 0.00 0.00 0.00 0.00 0.00 0.00 0.00 0.00 0.00 0.00 0.00 0.00 0.00 0.00 0.00 0.00 0.00 0.00 0.00 0.00 0.00
0.00 0.00 0.00 0.00 0.00 0.00 0.00 0.00 0.00 0.00 0.00 0.00 0.00 0.00 0.00 0.00 0.00 0.00 0.00 0.00 0.00 0.00 0.00 0.00 0.00 0.00 0.00 0.00 0.00 0.00 0.00 0.00 0.00 0.00 0.00 0.00 0.00 0.00 0.00 0.00 0.00 0.00 0.00 0.00 0.00
0.00 0.00 0.00 0.00 0.00 0.00 0.00 0.00 0.00 0.00 0.00 0.00 0.00 0.00 0.00 0.00 0.00 0.00 0.00 0.00 0.00 0.00 0.00 0.00 0.00 0.00 0.00 0.00 0.00 0.00 0.00 0.00 0.00 0.00 0.00 0.00 0.00 0.00 0.00 0.00 0.00 0.00 0.00 0.00 0.00
0.00 0.00 0.00 0.00 0.00 0.00 0.00 0.00 0.00 0.00 0.00 0.00 0.00 0.00 0.00 0.00 0.00 0.00 0.00 0.00 0.00 0.00 0.00 0.00 0.00 0.00 0.00 0.00 0.00 0.00 0.00 0.00 0.00 0.00 0.00 0.00 0.00 0.00 0.00 0.00 0.00 0.00 0.00 0.00 0.00
0.00 0.00 0.00 0.00 0.00 0.00 0.00 0.00 0.00 0.00 0.00 0.00 0.00 0.00 0.00 0.00 0.00 0.00 0.00 0.00 0.00 0.00 0.00 0.00 0.00 0.00 0.00 0.00 0.00 0.00 0.00 0.00 0.00 0.00 0.00 0.00 0.00 0.00 0.00 0.00 0.00 0.00 0.00 0.00 0.00
0.00 0.00 0.00 0.00 0.00 0.00 0.00 0.00 0.00 0.00 0.00 0.00 0.00 0.00 0.00 0.00 0.00 0.00 0.00 0.00 0.00 0.00 0.00 0.00 0.00 0.00 0.00 0.00 0.00 0.00 0.00 0.00 0.00 0.00 0.00 0.00 0.00 0.00 0.00 0.00 0.00 0.00 0.00 0.00 0.00
0.00 0.00 0.00 0.00 0.00 0.00 0.00 0.00 0.00 0.00 0.00 0.00 0.00 0.00 0.00 0.00 0.00 0.00 0.00 0.00 0.00 0.00 0.00 0.00 0.00 0.00 0.00 0.00 0.00 0.00 0.00 0.00 0.00 0.00 0.00 0.00 0.00 0.00 0.00 0.00 0.00 0.00 0.00 0.00 0.00
0.00 0.00 0.00 0.00 0.00 0.00 0.00 0.00 0.00 0.00 0.00 0.00 0.00 0.00 0.00 0.00 0.00 0.00 0.00 0.00 0.00 0.00 0.00 0.00 0.00 0.00 0.00 0.00 0.00 0.00 0.00 0.00 0.00 0.00 0.00 0.00 0.00 0.00 0.00 0.00 0.00 0.00 0.00 0.00 0.00
0.00 0.00 0.00 0.00 0.00 0.00 0.00 0.00 0.00 0.00 0.00 0.00 0.00 0.00 0.00 0.00 0.00 0.00 0.00 0.00 0.00 0.00 0.00 0.00 0.00 0.00 0.00 0.00 0.00 0.00 0.00 0.00 0.00 0.00 0.00 0.00 0.00 0.00 0.00 0.00 0.00 0.00 0.00 0.00 0.00
0.00 0.00 0.00 0.00 0.00 0.00 0.00 0.00 0.00 0.00 0.00 0.00 0.00 0.00 0.00 0.00 0.00 0.00 0.00 0.00 0.00 0.00 0.00 0.00 0.00 0.00 0.00 0.00 0.00 0.00 0.00 0.00 0.00 0.00 0.00 0.00 0.00 0.00 0.00 0.00 0.00 0.00 0.00 0.00 0.00
0.00 0.00 0.00 0.00 0.00 0.00 0.00 0.00 0.00 0.00 0.00 0.00 0.00 0.00 0.00 0.00 0.00 0.00 0.00 0.00 0.00 0.00 0.00 0.00 0.00 0.00 0.00 0.00 0.00 0.00 0.00 0.00 0.00 0.00 0.00 0.00 0.00 0.00 0.00 0.00 0.00 0.00 0.00 0.00 0.00
0.00 0.00 0.00 0.00 0.00 0.00 0.00 0.00 0.00 0.00 0.00 0.00 0.00 0.00 0.00 0.00 0.00 0.00 0.00 0.00 0.00 0.00 0.00 0.00 0.00 0.00 0.00 0.00 0.00 0.00 0.00 0.00 0.00 0.00 0.00 0.00 0.00 0.00 0.00 0.00 0.00 0.00 0.00 0.00 0.00
0.00 0.00 0.00 0.00 0.00 0.00 0.00 0.00 0.00 0.00 0.00 0.00 0.00 0.00 0.00 0.00 0.00 0.00 0.00 0.00 0.00 0.00 0.00 0.00 0.00 0.00 0.00 0.00 0.00 0.00 0.00 0.00 0.00 0.00 0.00 0.00 0.00 0.00 0.00 0.00 0.00 0.00 0.00 0.00 0.00
0.00 0.00 0.00 0.00 0.00 0.00 0.00 0.00 0.00 0.00 0.00 0.00 0.00 0.00 0.00 0.00 0.00 0.00 0.00 0.00 0.00 0.00 0.00 0.00 0.00 0.00 0.00 0.00 0.00 0.00 0.00 0.00 0.00 0.00 0.00 0.00 0.00 0.00 0.00 0.00 0.00 0.00 0.00 0.00 0.00
0.00 0.00 0.00 0.00 0.00 0.00 0.00 0.00 0.00 0.00 0.00 0.00 0.00 0.00 0.00 0.00 0.00 0.00 0.00 0.00 0.00 0.00 0.00 0.00 0.00 0.00 0.00 0.00 0.00 0.00 0.00 0.00 0.00 0.00 0.00 0.00 0.00 0.00 0.00 0.00 0.00 0.00 0.00 0.00 0.00
0.00 0.00 0.00 0.00 0.00 0.00 0.00 0.00 0.00 0.00 0.00 0.00 0.00 0.00 0.00 0.00 0.00 0.00 0.00 0.00 0.00 0.00 0.00 0.00 0.00 0.00 0.00 0.00 0.00 0.00 0.00 0.00 0.00 0.00 0.00 0.00 0.00 0.00 0.00 0.00 0.00 0.00 0.00 0.00 0.00
0.00 0.00 0.00 0.00 0.00 0.00 0.00 0.00 0.00 0.00 0.00 0.00 0.00 0.00 0.00 0.00 0.00 0.00 0.00 0.00 0.00 0.00 0.00 0.00 0.00 0.00 0.00 0.00 0.00 0.00 0.00 0.00 0.00 0.00 0.00 0.00 0.00 0.00 0.00 0.00 0.00 0.00 0.00 0.00 0.00
MSLP
1023.85 1023.59 1023.40 1023.18 1022.91 1022.60 1022.28 1022.04 1021.88 1021.74 1021.39 1021.33 1021.10 1020.79 1020.53 1020.16 1019.66 1019.11 1019.60 1019.91 1019.36 1018.57 1017.88 1017.25 1016.57 1016.76 1016.62 1016.42 1015.72 1015.24 1015.71 1015.35 1014.52 1013.87 1012.91 1011.57 1011.35 1010.47 1010.31 1010.74 1011.21 1011.98 1012.63 1012.89 1013.55
1023.91 1023.62 1023.43 1023.22 1023.00 1022.57 1022.26 1022.02 1021.90 1021.69 1021.44 1021.09 1020.94 1020.80 1020.36 1020.15 1020.10 1019.82 1020.12 1019.53 1019.01 1018.41 1018.13 1017.56 1017.26 1016.78 1016.72 1016.45 1015.94 1015.59 1015.42 1014.94 1013.90 1013.61 1013.26 1012.27 1012.03 1011.45 1011.11 1011.39 1012.07 1012.87 1013.12 1013.49 1014.09
1024.03 1023.69 1023.44 1023.29 1022.98 1022.77 1022.39 1022.05 1021.99 1021.71 1021.62 1021.26 1020.80 1020.60 1020.44 1020.26 1020.20 1020.60 1020.25 1019.63 1019.19 1018.52 1018.13 1017.62 1017.32 1017.32 1017.02 1016.57 1016.19 1015.57 1015.42 1014.80 1013.94 1013.71 1013.69 1012.98 1012.48 1012.32 1011.99 1012.18 1012.64 1013.15 1013.67 1013.93 1014.40
1024.21 1023.84 1023.52 1023.38 1023.11 1022.77 1022.69 1022.30 1021.96 1021.69 1021.42 1021.40 1021.33 1020.71 1020.41 1020.52 1021.19 1020.75 1020.35 1019.88 1019.37 1018.89 1018.30 1017.83 1017.51 1017.53 1017.48 1017.05 1016.27 1016.14 1015.45 1015.00 1014.17 1013.75 1013.64 1013.38 1013.24 1012.93 1012.84 1013.17 1012.83 1013.01 1013.41 1014.02 1014.63
1024.36 1024.00 1023.70 1023.48 1023.28 1022.89 1022.71 1022.57 1022.03 1021.74 1021.59 1021.35 1021.20 1020.87 1020.52 1020.72 1021.33 1020.70 1020.33 1020.08 1019.59 1019.46 1019.34 1018.94 1018.65 1018.33 1018.33 1017.79 1016.95 1016.57 1016.42 1015.70 1014.99 1014.29 1013.85 1013.47 1013.57 1013.72 1013.28 1013.07 1013.31 1013.53 1013.72 1013.94 1014.32
1024.43 1024.10 1023.95 1023.58 1023.40 1022.94 1022.75 1022.59 1022.09 1021.92 1021.86 1021.57 1021.21 1021.11 1020.94 1021.38 1021.19 1020.73 1020.28 1020.15 1019.97 1019.82 1019.72 1019.69 1019.75 1019.31 1018.76 1018.20 1017.90 1017.57 1016.96 1016.15 1015.31 1014.91 1014.54 1014.26 1013.86 1013.84 1013.35 1013.09 1013.28 1013.71 1014.14 1014.15 1014.20
1024.48 1024.15 1024.06 1023.68 1023.36 1022.99 1022.79 1022.63 1022.25 1021.91 1021.65 1021.59 1021.50 1021.43 1021.46 1021.60 1020.82 1020.50 1020.23 1020.22 1020.11 1019.98 1019.99 1019.95 1019.71 1019.78 1019.33 1018.78 1018.31 1017.79 1017.48 1016.44 1015.47 1015.01 1014.77 1014.45 1014.36 1013.99 1013.68 1013.64 1013.70 1013.71 1014.10 1013.88 1013.67
1024.57 1024.31 1024.18 1023.73 1023.15 1022.99 1022.92 1022.49 1021.97 1022.04 1021.82 1021.56 1021.41 1021.65 1021.63 1021.17 1021.04 1020.88 1020.53 1020.19 1020.15 1019.95 1019.79 1019.86 1019.75 1019.63 1019.51 1019.22 1018.68 1018.40 1018.08 1017.20 1015.52 1014.99 1014.91 1014.95 1014.58 1014.41 1013.77 1013.94 1014.05 1013.64 1013.61 1013.76 1013.48
1024.66 1024.44 1024.27 1023.83 1023.05 1022.84 1022.61 1022.49 1022.15 1021.81 1021.79 1021.58 1021.51 1021.64 1021.61 1021.17 1021.29 1020.99 1020.80 1020.68 1020.06 1019.95 1019.55 1019.37 1019.63 1019.91 1019.72 1019.74 1019.53 1019.16 1018.88 1017.96 1016.58 1015.49 1015.31 1015.39 1014.92 1013.74 1013.79 1013.94 1013.92 1013.65 1013.27 1012.99 1013.12
1024.59 1024.54 1024.30 1023.96 1023.12 1022.58 1022.25 1021.99 1022.24 1021.73 1021.86 1021.55 1021.68 1022.14 1021.86 1022.10 1021.72 1021.17 1020.89 1020.74 1020.52 1020.02 1019.91 1019.80 1020.10 1020.16 1020.27 1020.28 1020.70 1020.42 1019.83 1018.75 1017.93 1016.90 1016.49 1016.12 1015.75 1014.82 1013.84 1013.82 1013.72 1013.48 1013.18 1012.89 1012.69
1024.66 1024.55 1024.23 1023.99 1023.31 1022.39 1021.91 1022.30 1022.91 1022.40 1022.52 1023.09 1023.24 1023.13 1022.88 1022.39 1021.71 1021.67 1021.12 1020.75 1020.58 1020.55 1020.63 1020.53 1020.94 1021.03 1020.64 1020.51 1020.61 1020.63 1020.43 1019.82 1018.70 1017.86 1017.54 1016.88 1016.26 1015.37 1014.23 1013.57 1013.38 1013.11 1012.98 1012.84 1012.77
1024.69 1024.64 1024.27 1023.90 1023.52 1022.74 1022.58 1023.52 1024.41 1024.52 1024.02 1023.26 1023.20 1023.14 1023.02 1022.77 1022.26 1021.86 1021.45 1021.54 1021.38 1021.15 1021.08 1020.99 1020.98 1021.00 1020.77 1020.54 1020.63 1020.68 1020.59 1020.09 1019.03 1018.45 1018.26 1017.51 1016.72 1015.49 1014.73 1013.72 1013.29 1013.24 1012.96 1012.71 1012.26
1024.58 1024.53 1024.24 1023.88 1023.60 1023.52 1023.99 1024.36 1024.56 1024.40 1024.28 1023.74 1023.35 1023.12 1022.98 1022.72 1022.31 1022.18 1022.16 1022.06 1022.46 1021.98 1022.05 1021.60 1021.30 1020.91 1020.69 1020.59 1020.66 1020.67 1020.73 1020.59 1020.47 1019.50 1018.78 1018.01 1016.74 1015.76 1014.27 1013.71 1013.44 1013.07 1013.06 1012.86 1012.68
1024.50 1024.47 1024.19 1023.64 1023.93 1024.08 1024.45 1024.43 1024.29 1024.50 1024.90 1024.70 1023.55 1023.24 1023.09 1022.82 1022.88 1022.48 1022.50 1022.96 1022.77 1022.87 1022.56 1022.18 1021.21 1021.12 1021.00 1020.64 1020.55 1020.63 1020.95 1021.03 1021.08 1020.97 1020.51 1019.69 1019.13 1017.38 1015.54 1014.65 1014.07 1013.62 1013.57 1013.26 1012.93
1024.64 1024.46 1024.14 1024.08 1024.39 1024.53 1024.93 1024.55 1024.42 1024.54 1025.64 1024.99 1023.89 1023.18 1023.00 1023.18 1023.08 1022.87 1022.90 1022.97 1023.31 1023.45 1023.58 1022.87 1022.08 1021.83 1021.49 1021.10 1020.73 1021.07 1021.16 1021.36 1021.67 1021.81 1021.65 1020.56 1020.75 1018.47 1016.88 1016.15 1015.81 1015.57 1015.15 1014.60 1014.07
1024.71 1024.78 1024.14 1024.50 1024.52 1024.76 1024.57 1024.65 1024.85 1025.65 1026.50 1025.49 1024.50 1023.99 1023.79 1023.29 1022.93 1022.41 1023.13 1023.46 1023.38 1023.72 1023.59 1023.40 1022.54 1022.43 1022.02 1021.67 1021.40 1021.49 1021.48 1021.70 1021.94 1022.42 1022.65 1021.35 1021.13 1019.30 1018.28 1018.06 1017.43 1016.93 1016.51 1016.23 1015.54
1024.61 1024.65 1024.47 1024.58 1025.19 1024.68 1024.71 1025.33 1026.16 1027.08 1027.57 1026.80 1025.83 1025.18 1024.61 1024.22 1023.43 1022.98 1023.06 1023.94 1024.43 1024.56 1024.93 1024.15 1023.28 1022.67 1022.39 1022.22 1021.91 1022.14 1022.48 1023.18 1023.63 1023.66 1023.02 1021.62 1021.50 1019.68 1019.45 1019.41 1019.39 1018.99 1018.12 1017.18 1016.60
1024.38 1024.59 1024.75 1024.98 1025.17 1025.06 1025.13 1026.34 1027.32 1028.41 1027.94 1027.03 1026.41 1025.82 1025.42 1024.83 1024.40 1023.77 1023.65 1024.68 1025.19 1025.50 1025.79 1025.77 1024.26 1023.36 1022.95 1022.98 1022.98 1023.12 1023.44 1024.07 1024.60 1024.62 1023.35 1021.64 1020.90 1020.35 1020.12 1020.20 1020.13 1019.95 1019.50 1018.61 1017.65
1024.45 1024.78 1024.83 1025.10 1025.14 1025.31 1025.97 1027.45 1028.28 1028.14 1027.57 1027.24 1026.88 1026.80 1026.59 1025.59 1025.01 1024.45 1024.48 1025.03 1025.60 1025.68 1026.38 1026.60 1025.51 1024.11 1023.76 1023.58 1023.64 1023.71 1023.87 1023.97 1024.47 1024.64 1024.08 1022.38 1020.68 1020.59 1020.02 1019.87 1020.04 1020.36 1020.30 1019.81 1019.08
1024.39 1024.93 1025.16 1025.06 1025.17 1025.71 1026.93 1027.91 1028.29 1027.48 1026.95 1027.02 1027.43 1027.28 1027.41 1026.74 1026.13 1024.94 1024.76 1025.51 1025.44 1025.50 1025.97 1027.07 1026.93 1025.38 1024.50 1024.18 1024.30 1024.27 1024.42 1024.17 1024.50 1025.09 1024.41 1023.00 1022.31 1022.22 1021.87 1022.11 1022.06 1021.74 1021.47 1020.83 1020.04
1024.40 1025.16 1025.45 1025.35 1025.57 1026.47 1028.35 1028.13 1027.67 1027.07 1026.71 1027.25 1027.52 1027.30 1027.12 1026.78 1026.24 1025.55 1025.04 1025.46 1025.07 1025.62 1025.98 1026.91 1027.63 1026.23 1025.53 1025.00 1024.66 1024.48 1024.39 1024.40 1024.31 1024.65 1024.80 1024.69 1023.66 1023.78 1023.84 1023.79 1023.28 1022.76 1022.07 1021.72 1021.04
1024.55 1025.56 1025.39 1025.56 1026.87 1027.95 1028.25 1027.59 1027.05 1026.92 1026.38 1026.68 1027.23 1027.03 1027.23 1027.03 1026.53 1025.94 1025.40 1025.07 1025.02 1025.44 1026.08 1026.95 1027.58 1027.45 1026.24 1025.48 1024.88 1024.72 1024.75 1024.63 1024.70 1024.54 1024.61 1024.84 1024.34 1024.37 1024.39 1024.19 1023.94 1023.47 1023.03 1022.51 1021.75
1024.95 1025.73 1025.58 1025.84 1027.48 1028.24 1028.00 1027.35 1026.67 1026.54 1026.12 1026.39 1026.60 1026.76 1026.53 1027.07 1027.24 1026.11 1025.72 1025.12 1024.93 1025.36 1026.16 1026.87 1027.45 1027.44 1026.14 1026.08 1025.42 1025.28 1025.02 1025.09 1024.95 1024.78 1024.41 1024.85 1024.36 1024.50 1024.67 1024.26 1023.99 1023.64 1023.27 1022.51 1021.81
1024.45 1025.83 1026.29 1026.56 1027.18 1027.37 1027.51 1027.42 1026.76 1026.28 1025.84 1026.06 1026.05 1026.42 1026.59 1026.68 1027.06 1026.79 1025.89 1025.31 1025.13 1025.45 1025.98 1026.66 1027.29 1027.61 1027.37 1026.59 1026.22 1026.04 1025.52 1025.42 1025.28 1025.12 1024.84 1024.77 1024.66 1024.60 1024.51 1024.47 1024.22 1024.01 1023.64 1022.99 1022.56
1023.86 1025.11 1025.32 1026.47 1026.95 1026.89 1026.31 1026.50 1026.42 1026.21 1025.78 1025.96 1026.05 1026.11 1026.53 1027.14 1027.23 1027.14 1026.09 1025.75 1025.50 1025.74 1026.16 1026.60 1027.16 1027.27 1026.91 1026.21 1025.98 1025.76 1025.63 1025.51 1025.41 1025.19 1025.19 1025.14 1025.14 1025.22 1025.18 1024.95 1024.89 1024.62 1023.99 1023.49 1023.35
1022.79 1024.58 1025.64 1025.98 1025.77 1026.39 1026.17 1025.94 1025.72 1025.77 1025.56 1026.13 1026.13 1025.58 1025.86 1026.55 1026.62 1026.48 1026.40 1026.06 1026.02 1026.37 1026.65 1027.05 1027.22 1027.11 1026.67 1025.94 1025.75 1025.62 1025.39 1025.47 1025.34 1025.14 1024.98 1025.15 1025.30 1025.48 1025.26 1024.87 1024.72 1024.69 1024.70 1024.75 1024.59
1021.84 1022.71 1023.23 1025.46 1025.78 1025.72 1025.17 1024.66 1024.81 1024.70 1024.99 1024.95 1025.33 1025.28 1025.92 1025.63 1026.01 1026.12 1026.22 1026.40 1026.41 1026.91 1027.28 1027.62 1027.68 1027.73 1027.03 1026.35 1025.89 1025.43 1024.68 1025.15 1025.05 1025.07 1024.95 1025.14 1025.29 1025.13 1024.81 1024.76 1024.93 1025.00 1025.21 1025.35 1025.25
Thickness
5623 5624 5624 5624 5624 5623 5622 5620 5618 5614 5613 5609 5607 5607 5606 5608 5610 5611 5603 5600 5603 5608 5612 5618 5625 5624 5626 5626 5634 5639 5616 5622 5635 5643 5655 5670 5671 5687 5693 5686 5689 5687 5686 5693 5691
5621 5622 5622 5622 5621 5621 5620 5618 5614 5611 5608 5608 5606 5604 5605 5605 5603 5601 5596 5597 5599 5601 5602 5606 5606 5613 5612 5616 5621 5618 5610 5624 5643 5646 5645 5655 5655 5670 5673 5674 5670 5669 5680 5684 5682
5617 5619 5620 5619 5619 5616 5616 5613 5611 5607 5602 5603 5606 5604 5602 5602 5601 5590 5588 5590 5590 5593 5596 5598 5601 5600 5602 5608 5611 5616 5605 5626 5632 5637 5639 5646 5650 5657 5664 5665 5664 5664 5667 5675 5675
5612 5615 5616 5615 5615 5613 5609 5610 5607 5602 5602 5598 5595 5601 5600 5595 5589 5584 5581 5581 5581 5583 5586 5588 5589 5589 5589 5593 5604 5598 5613 5618 5628 5631 5632 5636 5639 5644 5654 5653 5661 5664 5667 5667 5667
5608 5610 5611 5611 5610 5608 5607 5604 5602 5599 5598 5597 5596 5597 5596 5589 5577 5578 5576 5573 5573 5570 5568 5570 5570 5572 5567 5576 5586 5591 5592 5604 5613 5620 5626 5634 5629 5631 5641 5653 5657 5658 5661 5663 5663
5604 5606 5606 5607 5607 5605 5603 5600 5596 5594 5592 5593 5594 5591 5589 5574 5575 5573 5572 5566 5562 5561 5559 5557 5554 5558 5562 5568 5571 5574 5580 5589 5602 5605 5610 5615 5623 5627 5638 5648 5645 5648 5648 5653 5658
5600 5603 5602 5603 5602 5602 5600 5596 5592 5593 5593 5590 5587 5585 5579 5571 5576 5572 5567 5560 5554 5552 5548 5548 5550 5547 5550 5556 5562 5567 5568 5579 5591 5599 5601 5610 5607 5611 5628 5632 5630 5636 5640 5648 5656
5596 5597 5598 5599 5601 5599 5596 5594 5594 5587 5587 5589 5586 5580 5570 5574 5570 5563 5558 5555 5549 5547 5545 5542 5542 5544 5546 5548 5554 5556 5560 5559 5586 5591 5595 5596 5591 5609 5621 5620 5622 5630 5638 5641 5648
5592 5592 5592 5593 5598 5597 5595 5590 5591 5588 5585 5585 5584 5578 5570 5570 5562 5557 5551 5544 5544 5543 5543 5543 5538 5535 5536 5535 5533 5544 5539 5552 5566 5584 5587 5584 5589 5608 5616 5613 5616 5623 5635 5643 5645
5588 5587 5588 5588 5593 5596 5595 5592 5585 5588 5584 5582 5580 5571 5568 5558 5554 5551 5545 5540 5538 5537 5536 5535 5524 5520 5519 5518 5505 5523 5532 5543 5547 5564 5568 5570 5573 5589 5605 5607 5609 5616 5623 5633 5639
5584 5584 5585 5584 5588 5593 5596 5588 5575 5579 5577 5568 5562 5560 5557 5553 5551 5542 5538 5536 5534 5531 5523 5523 5508 5511 5522 5526 5524 5521 5524 5525 5541 5552 5555 5563 5566 5581 5594 5602 5602 5611 5615 5620 5626
5581 5580 5582 5583 5582 5587 5587 5573 5563 5561 5558 5569 5565 5558 5553 5547 5542 5536 5532 5523 5522 5517 5526 5515 5518 5520 5521 5522 5519 5518 5515 5515 5538 5546 5549 5553 5562 5576 5584 5594 5598 5600 5605 5611 5619
5579 5578 5578 5579 5579 5578 5571 5565 5560 5561 5558 5564 5561 5557 5550 5546 5539 5529 5523 5518 5508 5510 5505 5515 5516 5517 5518 5519 5516 5517 5515 5517 5519 5531 5540 5546 5551 5569 5583 5584 5588 5595 5598 5604 5610
5575 5574 5574 5579 5573 5570 5564 5562 5560 5557 5526 5544 5559 5554 5549 5544 5533 5527 5521 5511 5512 5506 5503 5509 5521 5515 5513 5515 5516 5518 5509 5511 5512 5503 5507 5529 5505 5537 5560 5569 5576 5581 5585 5592 5598
5568 5570 5571 5570 5566 5562 5558 5557 5555 5553 5515 5552 5549 5551 5547 5538 5530 5525 5519 5512 5503 5502 5497 5499 5501 5496 5505 5509 5514 5509 5506 5503 5503 5506 5507 5514 5478 5518 5551 5556 5560 5562 5569 5575 5582
5561 5562 5567 5563 5562 5558 5557 5553 5549 5527 5506 5523 5547 5542 5539 5540 5536 5531 5518 5510 5508 5499 5499 5487 5499 5499 5501 5498 5501 5502 5503 5494 5506 5500 5448 5500 5488 5507 5537 5538 5537 5540 5545 5552 5562
5558 5558 5559 5558 5551 5555 5553 5544 5524 5509 5515 5516 5522 5532 5532 5529 5530 5531 5527 5503 5496 5484 5462 5478 5492 5497 5497 5487 5498 5490 5481 5420 5449 5468 5439 5513 5490 5504 5511 5509 5506 5508 5516 5526 5540
5555 5553 5552 5550 5547 5547 5546 5524 5516 5468 5482 5528 5533 5531 5525 5527 5522 5520 5524 5492 5493 5484 5474 5464 5458 5496 5496 5491 5482 5479 5476 5469 5467 5463 5471 5499 5503 5509 5499 5497 5492 5490 5494 5504 5514
5548 5548 5548 5546 5542 5540 5529 5491 5496 5488 5516 5528 5527 5496 5496 5522 5518 5511 5512 5500 5485 5479 5452 5462 5439 5485 5483 5482 5482 5470 5460 5480 5450 5437 5454 5484 5511 5494 5495 5493 5486 5482 5480 5483 5491
5543 5539 5540 5540 5538 5532 5504 5515 5493 5524 5530 5528 5492 5504 5480 5503 5497 5508 5508 5492 5491 5489 5474 5452 5448 5458 5478 5478 5471 5471 5471 5475 5444 5421 5438 5466 5480 5475 5473 5468 5462 5464 5463 5467 5470
5535 5528 5531 5532 5531 5517 5490 5476 5505 5523 5524 5504 5479 5501 5514 5497 5503 5505 5510 5493 5499 5484 5473 5458 5455 5449 5466 5466 5471 5474 5470 5469 5472 5464 5453 5422 5455 5459 5454 5448 5449 5451 5454 5449 5449
5523 5508 5524 5525 5501 5495 5476 5499 5522 5518 5522 5518 5502 5505 5505 5504 5501 5502 5497 5499 5494 5487 5473 5461 5454 5443 5443 5463 5475 5472 5470 5470 5461 5464 5454 5455 5452 5450 5446 5443 5442 5442 5442 5439 5440
5510 5506 5516 5516 5484 5473 5497 5515 5517 5516 5517 5516 5512 5507 5509 5496 5471 5496 5498 5495 5492 5485 5470 5460 5452 5427 5448 5461 5462 5449 5467 5462 5460 5458 5470 5467 5463 5447 5441 5439 5439 5439 5437 5438 5438
5505 5500 5504 5502 5500 5496 5486 5494 5500 5513 5518 5518 5519 5512 5509 5485 5494 5483 5496 5499 5490 5482 5474 5460 5447 5452 5448 5462 5458 5442 5456 5455 5452 5436 5452 5459 5450 5447 5442 5435 5437 5433 5431 5431 5428
5502 5496 5502 5496 5493 5502 5508 5504 5507 5495 5511 5511 5510 5509 5505 5464 5449 5463 5494 5492 5488 5482 5473 5463 5450 5438 5450 5459 5461 5458 5461 5446 5445 5453 5451 5444 5444 5441 5437 5432 5427 5425 5427 5427 5422
5503 5496 5486 5492 5498 5500 5506 5498 5508 5505 5503 5498 5496 5507 5506 5493 5483 5467 5485 5488 5481 5476 5470 5456 5433 5450 5432 5456 5461 5457 5464 5440 5429 5454 5450 5444 5442 5436 5435 5433 5430 5424 5420 5418 5415
5506 5504 5506 5486 5489 5498 5496 5508 5507 5511 5508 5510 5503 5510 5502 5502 5501 5495 5494 5485 5479 5467 5459 5448 5451 5438 5429 5448 5443 5458 5458 5451 5455 5454 5453 5435 5443 5439 5436 5435 5428 5423 5418 5415 5414